SCP
-0 0 0 0 0 0 0 0 0 0 0 0 0 -0 0 0 0 0 0 0 0 0 0 0 0 0 0 0 0 0 0 0 0 0 0 0 0 0 0 0 0 0 0
-0 -0 0 0 0 0 0 0 0 0 0 0 0 0 0 0 0 0 0 0 0 0 0 0 0 0 0 0 0 0 0 0 0 0 0 0 0 0 0 0 0 0 0
-0 -0 0 0 0 0 0 0 0 0 0 0 0 0 0 0 0 0 0 0 0 0 0 0 0 0 0 0 0 0 0 0 0 0 0 0 0 0 0 0 0 0 0
0 -0 -0 0 0 0 0 0 0 0 0 0 0 0 0 0 0 0 0 0 0 0 0 0 0 0 0 0 0 0 0 0 0 0 0 0 0 0 0 0 0 0 0
0 0 -0 -0 -0 0 0 0 0 0 0 0 0 0 0 0 0 0 0 0 0 0 0 0 0 0 0 0 0 0 0 0 0 0 0 0 0 0 0 0 0 0 0
0 0 0 -0 -0 0 0 0 0 0 0 0 0 0 0 0 0 0 0 0 0 0 0 0 0 0 0 0 0 0 0 0 0 0 0 0 0 0 0 0 0 0 0
0 0 0 0 0 -0 -0 0 0 0 0 0 0 0 0 0 0 0 0 0 0 0 0 0 0 0 0 0 0 0 0 0 0 0 0 0 0 0 0 0 0 0 0
0 0 0 0 0 -0 -0 0 0 0 0 0 0 0 0 0 0 0 0 0 0 0 0 0 0 0 0 0 0 0 0 0 0 0 0 0 0 0 0 0 0 0 0
0 0 0 0 0 0 -0 -0 0 0 0 0 0 0 0 0 0 0 0 0 0 0 0 0 0 0 0 0 0 0 0 0 0 0 0 0 0 0 0 0 0 0 0
0 0 0 0 0 0 0 -0 0 0 0 0 0 0 0 0 0 0 0 0 0 0 0 0 0 0 0 0 0 0 0 0 0 0 0 0 0 0 0 0 0 0 0
0 0 0 0 0 0 0 0 -0 0 0 0 0 0 0 0 0 0 0 0 0 0 0 0 0 0 0 0 0 0 0 0 0 0 0 0 0 0 0 0 0 0 0
0 0 0 0 0 0 0 0 0 -0 -0 0 0 0 0 0 0 0 0 0 0 0 0 0 0 0 0 0 0 0 0 0 0 0 0 0 0 0 0 0 0 0 0
0 0 0 0 0 0 0 0 0 -0 -0 -0 -0 0 0 0 0 0 0 0 0 0 0 0 0 0 0 0 0 0 0 0 0 0 0 0 0 0 0 0 0 0 0
0 0 0 0 0 0 0 0 0 -0 -0 -0 -0 0 0 0 0 0 0 0 0 0 0 0 0 0 0 0 0 0 0 0 0 0 0 0 0 0 0 0 0 0 0
0 0 0 0 0 0 0 0 0 0 -0 -0 -0 -0 0 0 0 0 0 0 0 0 0 0 0 0 0 0 0 0 0 0 0 0 0 0 0 0 0 0 0 0 0
0 0 0 0 0 0 0 0 0 0 0 0 0 -0 0 0 0 0 0 0 0 0 0 0 0 0 0 0 0 0 0 0 0 0 0 0 0 0 0 0 0 0 0
0 0 0 0 0 0 0 0 -0 0 0 0 0 0 0 0 0 0 0 0 0 0 0 0 0 0 0 0 0 0 0 0 0 0 0 0 0 0 0 0 0 0 0
0 0 0 0 0 0 0 0 0 0 0 0 0 0 0 0 0 0 0 0 0 0 0 0 0 0 0 0 0 0 0 0 0 0 0 0 0 0 0 0 0 0 0
0 0 0 0 0 0 0 0 0 0 0 0 0 0 0 0 0 0 0 0 0 0 0 0 0 0 0 0 0 0 0 0 0 0 0 0 0 0 0 0 0 0 0
0 0 0 0 0 0 0 0 0 0 0 0 -0 -0 0 0 0 0 0 0 0 0 0 0 0 0 0 0 0 0 0 0 0 0 0 0 0 0 0 0 0 0 0
0 0 0 0 0 0 0 0 0 0 0 -0 0 -0 0 0 0 0 0 0 0 0 0 0 0 0 0 0 0 0 0 0 0 0 0 0 0 0 0 0 0 0 0
0 0 0 0 0 0 0 0 0 0 0 -0 -0 -0 0 -0 0 0 0 0 0 0 0 0 0 0 0 0 0 0 0 0 0 0 0 0 0 0 0 0 0 0 0
0 0 0 0 0 0 0 0 0 0 0 0 -0 -0 -0 0 0 0 0 0 0 0 0 0 0 0 0 0 0 0 0 0 0 0 0 0 0 0 0 0 0 0 0
0 0 0 0 0 0 0 0 0 0 0 0 0 -0 -0 0 0 0 0 0 0 0 0 0 0 0 0 0 0 0 0 0 0 0 0 0 0 0 0 0 0 0 0
0 0 0 0 0 0 0 0 0 0 0 0 0 0 0 0 0 0 0 0 0 0 0 0 0 0 0 0 0 0 0 0 0 0 0 0 0 0 0 0 0 0 0
0 0 0 0 0 0 0 0 0 0 0 0 0 0 0 0 0 0 0 0 0 0 0 0 0 0 0 0 0 0 0 0 0 0 0 0 0 0 0 0 0 0 0
Wind_Speed_500mb
73 74 76 77 77 79 81 83 83 71 64 54 55 57 69 55 54 60 72 70 78 81 81 85 75 78 65 60 69 65 65 60 59 47 51 47 40 35 31 27 24 24 23
74 76 76 75 77 78 80 82 81 83 70 61 57 59 59 63 59 58 66 71 76 83 95 95 96 81 73 63 64 62 58 58 57 51 48 50 43 34 31 25 21 21 21
72 72 74 75 76 78 79 82 82 82 78 69 60 56 57 59 61 66 63 66 73 84 89 91 86 79 78 67 66 53 48 50 49 53 52 48 42 36 30 23 19 19 21
69 72 73 75 78 79 79 80 80 79 82 73 66 58 56 55 54 56 63 66 65 83 86 89 81 78 81 74 63 58 52 58 56 54 50 45 39 31 24 18 16 16 16
70 73 75 78 78 80 80 78 78 77 74 77 67 60 53 53 51 54 60 64 67 74 83 80 78 75 71 64 62 60 62 60 55 54 50 43 36 28 24 20 15 13 12
73 75 77 77 79 80 80 78 76 74 72 74 68 61 53 49 46 47 54 63 67 75 81 81 77 72 63 62 53 53 55 58 55 52 46 40 31 27 22 17 10 10 14
74 77 74 75 77 78 77 75 73 72 71 66 71 59 54 46 41 44 49 63 71 79 80 85 79 73 69 60 56 57 56 50 44 41 37 32 31 27 22 15 10 11 10
76 75 72 72 74 75 76 72 71 68 68 63 69 61 51 47 42 40 44 60 72 80 79 82 76 70 63 64 59 56 55 51 49 44 37 33 28 25 22 16 14 11 12
77 75 72 71 70 72 74 71 69 67 66 60 58 63 49 44 38 33 42 56 65 67 66 66 65 63 60 56 60 57 52 48 44 40 39 34 30 24 19 14 19 18 16
76 72 71 68 68 68 70 68 66 63 65 62 56 59 46 40 31 29 40 52 54 54 52 51 51 49 48 49 51 52 50 51 47 45 44 39 32 26 20 17 21 21 19
72 69 66 64 66 62 64 63 64 63 63 61 54 48 53 37 28 28 36 43 47 49 52 52 49 46 49 48 47 44 45 44 45 43 40 38 32 27 20 21 22 20 16
68 64 63 61 61 60 58 61 61 60 59 59 55 51 49 43 28 27 33 39 41 46 49 45 41 43 43 43 42 41 40 42 44 42 41 39 33 29 22 26 25 21 17
63 60 59 57 56 57 58 59 62 57 52 55 51 51 46 53 33 24 31 39 41 44 41 40 42 40 41 43 43 43 45 44 44 44 41 40 35 32 26 29 28 24 19
58 56 55 56 55 56 56 55 55 54 55 53 55 52 49 52 44 27 32 40 38 38 36 34 33 34 36 41 43 41 40 39 40 36 40 40 37 33 29 31 30 26 19
55 54 54 57 57 58 57 57 57 52 46 51 54 55 54 52 49 33 32 48 45 42 40 40 39 39 40 42 42 41 37 37 37 41 42 43 41 37 35 35 33 27 20
55 54 55 58 60 58 60 64 57 49 46 44 41 43 48 47 42 39 29 46 46 46 44 46 47 49 49 49 46 43 39 37 38 39 41 40 42 42 38 37 34 30 24
53 55 57 58 59 59 57 59 68 64 52 43 42 39 38 40 34 39 32 39 55 49 48 49 49 51 51 47 45 39 38 37 37 38 40 41 42 41 39 39 38 35 29
51 52 55 55 54 55 53 53 55 60 67 66 46 45 37 31 33 34 32 35 60 56 48 50 50 51 49 44 41 43 42 41 42 39 41 42 43 44 42 43 41 34 28
50 51 52 51 48 49 49 48 49 53 56 59 58 47 39 31 28 28 28 43 65 66 57 53 58 61 51 45 50 50 46 45 44 39 43 43 45 45 43 41 39 35 28
46 45 48 47 43 42 43 45 45 48 52 56 57 55 52 38 32 36 30 38 61 73 66 64 67 61 50 54 52 48 47 47 46 46 43 44 45 45 43 41 41 31 27
43 41 41 41 40 38 39 40 42 45 50 55 55 51 48 44 42 38 37 33 46 71 72 73 74 64 60 64 53 51 49 48 47 46 43 47 48 46 45 42 39 33 28
38 38 38 37 35 34 34 36 38 41 45 51 55 50 44 38 37 36 38 38 36 53 64 68 70 65 64 64 54 56 51 52 50 46 45 48 49 49 50 49 42 33 32
35 35 34 32 31 30 29 31 33 36 41 46 50 51 45 37 34 35 31 36 35 39 57 64 64 70 63 57 53 56 51 51 46 43 45 48 51 53 50 48 42 35 34
31 34 35 33 30 28 27 28 30 33 36 41 45 45 42 36 32 30 33 29 33 35 43 52 59 68 63 55 55 53 47 47 46 42 39 42 49 52 51 47 41 37 35
28 29 33 33 32 29 26 26 28 30 33 37 42 42 38 33 27 24 24 29 28 32 39 49 57 60 58 52 54 52 50 48 47 45 42 43 46 48 50 48 44 40 38
25 25 27 29 30 29 29 27 27 29 30 32 36 39 39 34 26 19 12 20 32 42 39 43 48 56 64 50 54 55 55 53 50 46 45 47 50 50 51 49 44 40 39
Wind_Direction_500mb
341 340 341 341 342 342 344 343 342 330 319 317 298 279 270 275 276 277 273 266 256 248 239 233 242 226 220 218 237 235 233 232 232 226 228 231 230 236 249 252 256 260 269
337 336 336 337 337 339 339 341 339 338 324 314 311 289 275 266 273 270 271 266 258 246 234 233 232 223 218 212 229 232 231 229 229 228 224 222 227 233 235 237 245 255 270
334 334 334 335 334 334 335 335 338 336 333 320 314 305 281 271 267 265 272 271 263 249 239 231 223 222 214 211 216 222 227 226 227 230 221 219 222 219 222 224 237 252 269
334 334 334 334 332 331 331 331 333 335 338 327 318 313 296 273 269 268 264 263 263 253 244 233 229 220 209 207 214 219 227 230 223 219 217 216 214 209 208 211 228 246 263
331 330 330 329 328 327 326 327 328 332 333 335 321 317 310 288 272 271 267 262 257 249 241 234 225 215 215 208 210 217 218 217 211 210 210 208 204 201 193 203 217 248 214
326 326 326 327 327 327 323 323 324 327 330 336 328 318 315 307 287 280 271 262 254 245 239 227 219 213 205 207 203 216 218 213 206 205 207 201 197 193 191 199 219 205 198
323 323 324 326 327 327 325 322 322 322 328 330 335 318 316 313 305 288 273 255 249 240 232 221 209 206 200 198 200 211 214 207 207 210 206 201 199 191 186 193 211 194 174
321 321 323 327 327 326 326 325 322 321 326 328 336 323 316 318 314 301 275 246 238 230 222 217 209 201 198 201 195 208 210 209 205 202 200 202 195 190 187 186 181 177 163
319 321 323 327 327 325 325 325 323 323 321 327 331 333 317 312 308 293 255 238 227 223 216 210 205 202 201 200 203 202 204 204 200 197 199 199 197 193 186 184 176 164 160
318 320 323 327 327 326 323 324 323 323 321 325 325 342 320 308 301 277 252 240 228 219 212 206 204 199 201 204 201 200 202 202 201 200 200 196 195 190 192 182 182 158 165
315 317 322 326 324 325 322 323 324 322 320 322 326 334 339 313 297 276 249 234 224 211 203 198 193 194 194 201 206 202 207 201 198 196 197 196 194 192 193 178 178 164 157
313 317 322 325 326 324 323 326 324 320 319 321 328 328 340 333 305 270 248 234 227 214 202 195 191 190 194 194 195 193 198 197 198 196 198 200 194 193 190 180 178 169 171
312 316 321 325 328 329 327 327 326 325 322 320 323 326 330 338 325 279 245 235 222 209 198 190 185 187 190 194 193 193 195 197 196 199 199 202 194 191 190 186 184 175 182
309 314 320 324 328 331 332 331 331 331 324 319 318 319 318 319 328 309 245 234 219 204 187 184 187 191 198 194 193 196 198 198 200 201 204 204 198 192 191 194 189 183 190
309 314 319 321 324 326 326 331 333 331 324 318 313 311 308 307 316 311 264 226 215 204 186 183 187 193 197 197 198 202 200 198 200 207 206 204 199 196 197 197 191 190 196
309 313 318 319 322 323 323 321 326 331 327 318 311 308 300 294 303 301 290 233 221 206 197 191 195 198 202 202 201 205 204 203 208 211 206 204 203 201 202 202 195 194 200
309 313 314 316 317 319 322 323 321 324 329 325 323 315 299 283 292 300 270 248 225 213 204 200 205 206 206 206 209 213 216 211 212 213 208 207 204 203 203 204 198 199 198
308 311 312 314 315 315 317 318 319 322 326 327 325 323 314 287 284 299 272 254 227 217 212 211 208 210 205 202 211 218 221 216 216 215 209 208 205 206 204 201 197 195 193
310 313 312 313 314 312 313 313 316 317 320 322 321 320 322 296 290 293 277 241 225 221 208 206 205 206 203 210 218 223 220 218 216 214 210 206 204 206 203 196 191 187 190
310 313 312 313 314 311 311 313 316 318 318 321 322 323 323 306 288 308 302 246 228 225 218 206 209 212 213 212 225 222 221 214 212 214 205 203 199 205 198 190 189 184 181
315 318 316 315 315 315 315 317 320 320 320 319 320 320 319 303 293 294 291 286 239 228 230 220 215 212 208 215 227 222 220 213 213 210 201 198 199 197 187 182 184 177 177
320 325 324 321 320 319 318 321 323 322 322 321 321 320 317 300 290 284 284 279 262 237 235 237 230 215 213 218 227 221 217 211 211 204 198 197 196 190 184 182 180 175 172
327 330 330 327 324 322 321 323 326 327 328 329 328 326 321 308 293 283 272 278 262 246 233 235 235 224 217 225 224 220 215 208 205 202 196 194 192 188 184 182 177 172 170
326 336 338 337 334 331 329 330 330 331 336 338 339 335 327 315 302 288 267 259 260 248 242 232 227 221 212 222 213 209 203 198 198 196 191 190 188 184 182 179 175 168 168
325 335 343 344 343 339 336 334 333 333 340 346 349 347 340 330 319 298 269 253 254 242 235 227 223 216 213 211 207 197 193 190 192 188 182 181 184 181 178 177 177 171 168
323 331 341 351 354 350 346 343 341 340 344 349 352 355 353 352 341 328 286 235 230 232 233 227 222 211 204 205 199 196 190 188 187 185 181 178 177 179 178 179 175 170 166
Wind_Speed_850mb
73 74 76 77 77 79 81 83 83 71 64 54 55 57 69 55 54 60 72 70 78 81 81 85 75 78 65 60 69 65 65 60 59 47 51 47 40 35 31 27 24 24 23
74 76 76 75 77 78 80 82 81 83 70 61 57 59 59 63 59 58 66 71 76 83 95 95 96 81 73 63 64 62 58 58 57 51 48 50 43 34 31 25 21 21 21
72 72 74 75 76 78 79 82 82 82 78 69 60 56 57 59 61 66 63 66 73 84 89 91 86 79 78 67 66 53 48 50 49 53 52 48 42 36 30 23 19 19 21
69 72 73 75 78 79 79 80 80 79 82 73 66 58 56 55 54 56 63 66 65 83 86 89 81 78 81 74 63 58 52 58 56 54 50 45 39 31 24 18 16 16 16
70 73 75 78 78 80 80 78 78 77 74 77 67 60 53 53 51 54 60 64 67 74 83 80 78 75 71 64 62 60 62 60 55 54 50 43 36 28 24 20 15 13 12
73 75 77 77 79 80 80 78 76 74 72 74 68 61 53 49 46 47 54 63 67 75 81 81 77 72 63 62 53 53 55 58 55 52 46 40 31 27 22 17 10 10 14
74 77 74 75 77 78 77 75 73 72 71 66 71 59 54 46 41 44 49 63 71 79 80 85 79 73 69 60 56 57 56 50 44 41 37 32 31 27 22 15 10 11 10
76 75 72 72 74 75 76 72 71 68 68 63 69 61 51 47 42 40 44 60 72 80 79 82 76 70 63 64 59 56 55 51 49 44 37 33 28 25 22 16 14 11 12
77 75 72 71 70 72 74 71 69 67 66 60 58 63 49 44 38 33 42 56 65 67 66 66 65 63 60 56 60 57 52 48 44 40 39 34 30 24 19 14 19 18 16
76 72 71 68 68 68 70 68 66 63 65 62 56 59 46 40 31 29 40 52 54 54 52 51 51 49 48 49 51 52 50 51 47 45 44 39 32 26 20 17 21 21 19
72 69 66 64 66 62 64 63 64 63 63 61 54 48 53 37 28 28 36 43 47 49 52 52 49 46 49 48 47 44 45 44 45 43 40 38 32 27 20 21 22 20 16
68 64 63 61 61 60 58 61 61 60 59 59 55 51 49 43 28 27 33 39 41 46 49 45 41 43 43 43 42 41 40 42 44 42 41 39 33 29 22 26 25 21 17
63 60 59 57 56 57 58 59 62 57 52 55 51 51 46 53 33 24 31 39 41 44 41 40 42 40 41 43 43 43 45 44 44 44 41 40 35 32 26 29 28 24 19
58 56 55 56 55 56 56 55 55 54 55 53 55 52 49 52 44 27 32 40 38 38 36 34 33 34 36 41 43 41 40 39 40 36 40 40 37 33 29 31 30 26 19
55 54 54 57 57 58 57 57 57 52 46 51 54 55 54 52 49 33 32 48 45 42 40 40 39 39 40 42 42 41 37 37 37 41 42 43 41 37 35 35 33 27 20
55 54 55 58 60 58 60 64 57 49 46 44 41 43 48 47 42 39 29 46 46 46 44 46 47 49 49 49 46 43 39 37 38 39 41 40 42 42 38 37 34 30 24
53 55 57 58 59 59 57 59 68 64 52 43 42 39 38 40 34 39 32 39 55 49 48 49 49 51 51 47 45 39 38 37 37 38 40 41 42 41 39 39 38 35 29
51 52 55 55 54 55 53 53 55 60 67 66 46 45 37 31 33 34 32 35 60 56 48 50 50 51 49 44 41 43 42 41 42 39 41 42 43 44 42 43 41 34 28
50 51 52 51 48 49 49 48 49 53 56 59 58 47 39 31 28 28 28 43 65 66 57 53 58 61 51 45 50 50 46 45 44 39 43 43 45 45 43 41 39 35 28
46 45 48 47 43 42 43 45 45 48 52 56 57 55 52 38 32 36 30 38 61 73 66 64 67 61 50 54 52 48 47 47 46 46 43 44 45 45 43 41 41 31 27
43 41 41 41 40 38 39 40 42 45 50 55 55 51 48 44 42 38 37 33 46 71 72 73 74 64 60 64 53 51 49 48 47 46 43 47 48 46 45 42 39 33 28
38 38 38 37 35 34 34 36 38 41 45 51 55 50 44 38 37 36 38 38 36 53 64 68 70 65 64 64 54 56 51 52 50 46 45 48 49 49 50 49 42 33 32
35 35 34 32 31 30 29 31 33 36 41 46 50 51 45 37 34 35 31 36 35 39 57 64 64 70 63 57 53 56 51 51 46 43 45 48 51 53 50 48 42 35 34
31 34 35 33 30 28 27 28 30 33 36 41 45 45 42 36 32 30 33 29 33 35 43 52 59 68 63 55 55 53 47 47 46 42 39 42 49 52 51 47 41 37 35
28 29 33 33 32 29 26 26 28 30 33 37 42 42 38 33 27 24 24 29 28 32 39 49 57 60 58 52 54 52 50 48 47 45 42 43 46 48 50 48 44 40 38
25 25 27 29 30 29 29 27 27 29 30 32 36 39 39 34 26 19 12 20 32 42 39 43 48 56 64 50 54 55 55 53 50 46 45 47 50 50 51 49 44 40 39
Wind_Direction_850mb
341 340 341 341 342 342 344 343 342 330 319 317 298 279 270 275 276 277 273 266 256 248 239 233 242 226 220 218 237 235 233 232 232 226 228 231 230 236 249 252 256 260 269
337 336 336 337 337 339 339 341 339 338 324 314 311 289 275 266 273 270 271 266 258 246 234 233 232 223 218 212 229 232 231 229 229 228 224 222 227 233 235 237 245 255 270
334 334 334 335 334 334 335 335 338 336 333 320 314 305 281 271 267 265 272 271 263 249 239 231 223 222 214 211 216 222 227 226 227 230 221 219 222 219 222 224 237 252 269
334 334 334 334 332 331 331 331 333 335 338 327 318 313 296 273 269 268 264 263 263 253 244 233 229 220 209 207 214 219 227 230 223 219 217 216 214 209 208 211 228 246 263
331 330 330 329 328 327 326 327 328 332 333 335 321 317 310 288 272 271 267 262 257 249 241 234 225 215 215 208 210 217 218 217 211 210 210 208 204 201 193 203 217 248 214
326 326 326 327 327 327 323 323 324 327 330 336 328 318 315 307 287 280 271 262 254 245 239 227 219 213 205 207 203 216 218 213 206 205 207 201 197 193 191 199 219 205 198
323 323 324 326 327 327 325 322 322 322 328 330 335 318 316 313 305 288 273 255 249 240 232 221 209 206 200 198 200 211 214 207 207 210 206 201 199 191 186 193 211 194 174
321 321 323 327 327 326 326 325 322 321 326 328 336 323 316 318 314 301 275 246 238 230 222 217 209 201 198 201 195 208 210 209 205 202 200 202 195 190 187 186 181 177 163
319 321 323 327 327 325 325 325 323 323 321 327 331 333 317 312 308 293 255 238 227 223 216 210 205 202 201 200 203 202 204 204 200 197 199 199 197 193 186 184 176 164 160
318 320 323 327 327 326 323 324 323 323 321 325 325 342 320 308 301 277 252 240 228 219 212 206 204 199 201 204 201 200 202 202 201 200 200 196 195 190 192 182 182 158 165
315 317 322 326 324 325 322 323 324 322 320 322 326 334 339 313 297 276 249 234 224 211 203 198 193 194 194 201 206 202 207 201 198 196 197 196 194 192 193 178 178 164 157
313 317 322 325 326 324 323 326 324 320 319 321 328 328 340 333 305 270 248 234 227 214 202 195 191 190 194 194 195 193 198 197 198 196 198 200 194 193 190 180 178 169 171
312 316 321 325 328 329 327 327 326 325 322 320 323 326 330 338 325 279 245 235 222 209 198 190 185 187 190 194 193 193 195 197 196 199 199 202 194 191 190 186 184 175 182
309 314 320 324 328 331 332 331 331 331 324 319 318 319 318 319 328 309 245 234 219 204 187 184 187 191 198 194 193 196 198 198 200 201 204 204 198 192 191 194 189 183 190
309 314 319 321 324 326 326 331 333 331 324 318 313 311 308 307 316 311 264 226 215 204 186 183 187 193 197 197 198 202 200 198 200 207 206 204 199 196 197 197 191 190 196
309 313 318 319 322 323 323 321 326 331 327 318 311 308 300 294 303 301 290 233 221 206 197 191 195 198 202 202 201 205 204 203 208 211 206 204 203 201 202 202 195 194 200
309 313 314 316 317 319 322 323 321 324 329 325 323 315 299 283 292 300 270 248 225 213 204 200 205 206 206 206 209 213 216 211 212 213 208 207 204 203 203 204 198 199 198
308 311 312 314 315 315 317 318 319 322 326 327 325 323 314 287 284 299 272 254 227 217 212 211 208 210 205 202 211 218 221 216 216 215 209 208 205 206 204 201 197 195 193
310 313 312 313 314 312 313 313 316 317 320 322 321 320 322 296 290 293 277 241 225 221 208 206 205 206 203 210 218 223 220 218 216 214 210 206 204 206 203 196 191 187 190
310 313 312 313 314 311 311 313 316 318 318 321 322 323 323 306 288 308 302 246 228 225 218 206 209 212 213 212 225 222 221 214 212 214 205 203 199 205 198 190 189 184 181
315 318 316 315 315 315 315 317 320 320 320 319 320 320 319 303 293 294 291 286 239 228 230 220 215 212 208 215 227 222 220 213 213 210 201 198 199 197 187 182 184 177 177
320 325 324 321 320 319 318 321 323 322 322 321 321 320 317 300 290 284 284 279 262 237 235 237 230 215 213 218 227 221 217 211 211 204 198 197 196 190 184 182 180 175 172
327 330 330 327 324 322 321 323 326 327 328 329 328 326 321 308 293 283 272 278 262 246 233 235 235 224 217 225 224 220 215 208 205 202 196 194 192 188 184 182 177 172 170
326 336 338 337 334 331 329 330 330 331 336 338 339 335 327 315 302 288 267 259 260 248 242 232 227 221 212 222 213 209 203 198 198 196 191 190 188 184 182 179 175 168 168
325 335 343 344 343 339 336 334 333 333 340 346 349 347 340 330 319 298 269 253 254 242 235 227 223 216 213 211 207 197 193 190 192 188 182 181 184 181 178 177 177 171 168
323 331 341 351 354 350 346 343 341 340 344 349 352 355 353 352 341 328 286 235 230 232 233 227 222 211 204 205 199 196 190 188 187 185 181 178 177 179 178 179 175 170 166